Location: Untermarchtal
(48.2403°N, 9.6117°E)
Time: 22:43:03
(UTC+01:00)

ISS - Pass Details

Date: 30 September 2020
Orbit: 417 x 420 km, 51.6° (Epoch: 27 October)

Event Time Altitude Azimuth Distance (km) Brightness Sun altitude
Rises 20:16:34 0° 290° (WNW) 2,370 1.9 -13.2°
Reaches altitude 10° 20:18:41 10° 293° (WNW) 1,505 0.4 -13.5°
Maximum altitude 20:22:02 61° 15° (NNE) 480 -3.6 -14.1°
Enters shadow 20:23:33 29° 87° (E) 801 -2.9 -14.3°
